Garden City, KS

1:09 PM CDT on April 25, 2017 (GMT -0500)
Garden City Regional

Weather History for KGCK - November, 2012

Change the Weather History Date:

Friday, November 16, 2012

  Actual Average Record
Temperature  
Mean Temperature 40 °F 41 °F  
Max Temperature 59 °F 55 °F 87 °F (2016)
Min Temperature 21 °F 27 °F -2 °F (1955)
Degree Days  
Heating Degree Days 25 24  
Month to date heating degree days 271 320  
Since 1 July heating degree days 702 710  
Cooling Degree Days 0 0  
Month to date cooling degree days 0 0  
Year to date cooling degree days 1643 1298  
Moisture  
Dew Point 29 °F    
Average Humidity 61    
Maximum Humidity 81    
Minimum Humidity 40    
Precipitation  
Precipitation 0.00 in 0.02 in 1.32 in (1971)
Month to date precipitation 0.00 0.32  
Year to date precipitation 12.67 18.72  
Sea Level Pressure  
Sea Level Pressure 30.32 in    
Wind  
Wind Speed 10 mph (SSE)    
Max Wind Speed 23 mph    
Max Gust Speed 30 mph    
Visibility 10 miles    
Events      
T = Trace of Precipitation, MM = Missing Value Source: NWS Daily Summary

Daily Weather History Graph

Daily Weather History Graph

Search for Another Location

Airport or City:

Trip Planner

Search our weather history database for the weather conditions in past years. The results will help you decide how hot, cold, wet, or windy it might be!

Date:

Astronomy

Nov. 16, 2012 Rise Set
Actual Time 7:25 AM CST 5:30 PM CST
Civil Twilight 6:56 AM CST 5:58 PM CST
Nautical Twilight 6:25 AM CST 6:30 PM CST
Astronomical Twilight 5:53 AM CST 7:01 PM CST
Moon 10:20 AM CST (11/16) 8:32 PM CST (11/16)
Length of Visible Light 11h 01m
Length of Day
10h 05m
Waxing Crescent, 12% of the Moon is Illuminated
Nov 16
Waxing Crescent
Nov 20
First Quarter
Nov 28
Full
Dec 6
Last Quarter
Dec 13
New

Hourly Weather History & Observations

Time (CST) Temp. Windchill Dew Point Humidity Pressure Visibility Wind Dir Wind Speed Gust Speed Precip Events Conditions
12:54 AM 28.9 °F 21.9 °F 21.9 °F 75% 30.40 in 10.0 mi NNE 6.9 mph - N/A   Clear
1:54 AM 28.0 °F 18.6 °F 21.9 °F 78% 30.40 in 10.0 mi North 10.4 mph - N/A   Clear
2:54 AM 28.9 °F 20.4 °F 23.0 °F 78% 30.40 in 10.0 mi NNE 9.2 mph - N/A   Clear
3:54 AM 28.0 °F 20.8 °F 21.9 °F 78% 30.40 in 10.0 mi NE 6.9 mph - N/A   Clear
4:54 AM 27.0 °F - 21.9 °F 81% 30.40 in 10.0 mi Calm Calm - N/A   Clear
5:54 AM 26.1 °F 20.5 °F 21.0 °F 81% 30.41 in 10.0 mi NW 4.6 mph - N/A   Clear
6:54 AM 24.1 °F 18.2 °F 19.0 °F 81% 30.42 in 10.0 mi NW 4.6 mph - N/A   Clear
7:54 AM 25.0 °F - 19.0 °F 78% 30.43 in 8.0 mi Calm Calm - N/A   Clear
8:54 AM 34.0 °F - 26.1 °F 73% 30.41 in 10.0 mi Calm Calm - N/A   Clear
9:54 AM 41.0 °F 36.4 °F 28.0 °F 60% 30.40 in 10.0 mi South 6.9 mph - N/A   Clear
10:54 AM 50.0 °F - 33.1 °F 52% 30.38 in 10.0 mi South 8.1 mph - N/A   Clear
11:54 AM 55.0 °F - 37.0 °F 51% 30.35 in 10.0 mi South 13.8 mph - N/A   Clear
12:54 PM 57.0 °F - 36.0 °F 45% 30.31 in 10.0 mi South 18.4 mph 25.3 mph N/A   Clear
1:54 PM 57.9 °F - 36.0 °F 44% 30.28 in 10.0 mi SSW 18.4 mph 26.5 mph N/A   Clear
2:54 PM 59.0 °F - 36.0 °F 42% 30.26 in 10.0 mi South 18.4 mph 25.3 mph N/A   Clear
3:54 PM 57.9 °F - 34.0 °F 41% 30.25 in 10.0 mi South 17.3 mph 26.5 mph N/A   Clear
4:54 PM 57.0 °F - 34.0 °F 42% 30.24 in 10.0 mi South 15.0 mph - N/A   Clear
5:54 PM 51.1 °F - 33.1 °F 50% 30.24 in 10.0 mi SSE 11.5 mph - N/A   Clear
6:54 PM 46.9 °F - 32.0 °F 56% 30.25 in 10.0 mi SSE 12.7 mph - N/A   Clear
7:54 PM 46.0 °F 40.6 °F 33.1 °F 61% 30.26 in 10.0 mi SSE 11.5 mph - N/A   Clear
8:54 PM 45.0 °F 39.3 °F 33.1 °F 63% 30.24 in 10.0 mi SSE 11.5 mph - N/A   Clear
9:54 PM 46.0 °F 40.2 °F 34.0 °F 63% 30.22 in 10.0 mi SSE 12.7 mph - N/A   Clear
10:54 PM 43.0 °F 36.8 °F 34.0 °F 71% 30.20 in 10.0 mi South 11.5 mph - N/A   Clear
11:54 PM 42.1 °F 34.9 °F 34.0 °F 73% 30.19 in 10.0 mi South 13.8 mph - N/A   Clear